Location: Unspecified
(0.0000°N, 0.0000°E)
Time: 05:02:38
(UTC+00:00)

Tiros 1 despin weight - Pass Details

Date: 09 October 2020
Orbit: 594 x 641 km, 48.2° (Epoch: 28 October)

Event Time Altitude Azimuth Distance (km) Brightness Sun altitude
Rises 17:02:51 0° 302° (WNW) 2,908 ? 11.0°
Reaches altitude 10° 17:05:24 10° 290° (WNW) 2,009 ? 10.4°
Maximum altitude 17:09:24 29° 231° (SW) 1,172 ? 9.4°
Drops below altitude 10° 17:13:27 10° 170° (S) 2,027 ? 8.4°
Sets 17:16:03 0° 159° (SSE) 2,939 ? 7.7°
